Home > Weather > Philadelphia > Past weeks

Flag for U.S.A. Weather for the Past 2 Weeks in Philadelphia, Pennsylvania, U.S.A.

Now
39 °F

Clear.


Feels Like: 33 °F
Forecast: 27 / 42 °F
Wind: 9 mph from Northwest

Location: Philadelphia International Airport

Current Time: Feb 5, 2016 at 7:18:40 PM

Latest Report: Feb 5, 2016 at 6:54 PM


Visibility: 10 mi

Pressure: 30.32 "Hg

Humidity: 39%

Dew point: 16 °F

Location of PhiladelphiaLocation

Historic Weather in Philadelphia — Graph

°F

Philadelphia Temperature Yesterday

Maximum temperature yesterday: 56 °F (at 12:54 AM)
Minimum temperature yesterday: 44 °F (at 11:54 PM)
Average temperature yesterday: 50 °F

High & Low Weather Summary for the Past Weeks

 TemperatureHumidityPressure
High62 °F (Feb 3, 10:54 AM)93% (Feb 4, 4:04 AM)30.37 "Hg (Feb 4, 4:04 AM)
Low21 °F (Jan 25, 2:54 AM)31% (Jan 27, 1:54 PM)29.53 "Hg (Jan 29, 4:54 AM)
Average38 °F62%30.02 "Hg
* Reported Jan 21 5:54 PM — Feb 5 5:54 PM, Philadelphia, Weather by CustomWeather, © 2016

Note: Actual official high and low records may vary slightly from our data, if they occured in-between our weather recording intervals... More about our weather records

Advertising

Philadelphia Weather History for the Previous 24 Hours

 ConditionsComfort  
Time TempWeatherWind HumidityBarometerVisibility
5:54 PM
Fri, Feb 5
41 °FClear.13 mph35%30.29 "Hg10 mi
4:54 PM42 °FPassing clouds.21 mph33%30.25 "Hg10 mi
3:54 PM42 °FPartly sunny.17 mph39%30.21 "Hg10 mi
2:54 PM43 °FPartly sunny.16 mph40%30.19 "Hg10 mi
1:54 PM42 °FPartly sunny.15 mph41%30.17 "Hg10 mi
12:54 PM43 °FPartly sunny.17 mph45%30.16 "Hg10 mi
11:54 AM42 °FScattered clouds.13 mph60%30.15 "Hg10 mi
10:54 AM37 °FPartly sunny.5 mph73%30.17 "Hg10 mi
9:54 AM37 °FPartly sunny.9 mph80%30.18 "Hg10 mi
8:54 AM36 °FMostly cloudy.12 mph81%30.14 "Hg10 mi
7:54 AM35 °FLight snow. Fog.13 mph91%30.09 "Hg5 mi
6:54 AM35 °FLight snow. Fog.17 mph90%30.09 "Hg2 mi
5:54 AM36 °FLight snow. Fog.8 mph88%30.09 "Hg1 mi
4:54 AM35 °FLight snow. Fog.8 mph88%30.10 "Hg2 mi
3:54 AM36 °FLight snow. Fog.9 mph87%30.08 "Hg2 mi
2:54 AM38 °FLight rain. Fog.16 mph79%30.08 "Hg5 mi
1:54 AM39 °FLight rain. Fog.9 mph79%30.06 "Hg5 mi
12:54 AM44 °FLight rain. Mostly cloudy.13 mph65%30.07 "Hg10 mi
11:54 PM
Thu, Feb 4
44 °FMostly cloudy.6 mph65%30.08 "Hg10 mi
10:54 PM45 °FLight rain. Mostly cloudy.10 mph67%30.08 "Hg10 mi
9:54 PM45 °FLight rain. Mostly cloudy.7 mph64%30.07 "Hg10 mi
8:54 PM46 °FMostly cloudy.6 mph54%30.08 "Hg10 mi
7:54 PM46 °FMostly cloudy.7 mph53%30.06 "Hg10 mi
Weather by CustomWeather, © 2016

See weather overviewHow to use our weather pages